Fort Wayne, IN

8:26 PM EST on November 15, 2019 (GMT -0500)
Fort Wayne International

Weather History for KFWA - September, 2019

Change the Weather History Date:

Saturday, September 7, 2019

  Actual Average Record
Temperature  
Mean Temperature 68 °F 68 °F  
Max Temperature 75 °F 79 °F 99 °F (1939)
Min Temperature 60 °F 56 °F 41 °F (1962)
Degree Days  
Heating Degree Days 0 1  
Month to date heating degree days 6 7  
Since 1 July heating degree days 7 19  
Cooling Degree Days 3 4  
Month to date cooling degree days 13 32  
Year to date cooling degree days 851 749  
Growing Degree Days 18 (Base 50)    
Moisture  
Dew Point 58 °F    
Average Humidity 72    
Maximum Humidity 90    
Minimum Humidity 53    
Precipitation  
Precipitation 0.00 in 0.10 in 1.19 in (2012)
Month to date precipitation 0.11 0.68  
Year to date precipitation 28.38 27.52  
Sea Level Pressure  
Sea Level Pressure 30.01 in    
Wind  
Wind Speed 5 mph (NW)    
Max Wind Speed 14 mph    
Max Gust Speed 18 mph    
Visibility 10 miles    
Events      
T = Trace of Precipitation, MM = Missing Value Source: NWS Daily Summary

Daily Weather History Graph

Daily Weather History Graph

Search for Another Location

Airport or City:

Astronomy

Sep. 07, 2019 Rise Set
Actual Time 7:13 AM EDT 8:03 PM EDT
Civil Twilight 6:45 AM EDT 8:31 PM EDT
Nautical Twilight 6:12 AM EDT 9:04 PM EDT
Astronomical Twilight 5:37 AM EDT 9:38 PM EDT
Moon 4:21 PM EDT (9/7) 1:02 AM EDT (9/7)
Length of Visible Light 13h 46m
Length of Day
12h 50m
Waxing Gibbous, 65% of the Moon is Illuminated
Sep 7
Waxing Gibbous
Sep 14
Full
Sep 21
Last Quarter
Sep 28
New
Oct 5
First Quarter

Hourly Weather History & Observations

Time (EDT) Temp. Dew Point Humidity Pressure Visibility Wind Dir Wind Speed Gust Speed Precip Events Conditions
12:54 AM 64.0 °F 61.0 °F 90% 29.97 in 10.0 mi NW 6.9 mph - N/A   Overcast
1:21 AM 64.0 °F 61.0 °F 90% 29.98 in 10.0 mi NW 6.9 mph - N/A   Overcast
1:54 AM 64.0 °F 61.0 °F 90% 29.97 in 10.0 mi NW 6.9 mph - N/A   Overcast
2:54 AM 64.0 °F 61.0 °F 90% 29.98 in 10.0 mi NW 5.8 mph - N/A   Overcast
3:08 AM 64.0 °F 61.0 °F 90% 29.98 in 10.0 mi NNW 6.9 mph - N/A   Overcast
3:36 AM 64.0 °F 61.0 °F 90% 29.99 in 10.0 mi NNW 5.8 mph - N/A   Overcast
3:54 AM 64.0 °F 61.0 °F 90% 29.98 in 10.0 mi NNW 4.6 mph - N/A   Overcast
4:24 AM 64.0 °F 61.0 °F 90% 29.98 in 10.0 mi NW 5.8 mph - N/A   Overcast
4:54 AM 64.0 °F 61.0 °F 90% 29.98 in 10.0 mi NW 6.9 mph - N/A   Overcast
5:06 AM 63.0 °F 61.0 °F 93% 29.99 in 10.0 mi WNW 6.9 mph - N/A   Overcast
5:54 AM 62.1 °F 59.0 °F 90% 30.00 in 10.0 mi NNW 8.1 mph - N/A   Overcast
6:54 AM 61.0 °F 57.9 °F 90% 30.01 in 10.0 mi NNW 9.2 mph - N/A   Overcast
7:54 AM 60.1 °F 57.0 °F 90% 30.02 in 10.0 mi North 8.1 mph - N/A   Overcast
8:42 AM 61.0 °F 57.0 °F 87% 30.05 in 10.0 mi NNW 10.4 mph 17.3 mph N/A   Mostly Cloudy
8:50 AM 60.8 °F 55.4 °F 82% 30.05 in 10.0 mi North 13.8 mph - N/A   Mostly Cloudy
8:54 AM 60.1 °F 55.9 °F 86% 30.05 in 10.0 mi North 12.7 mph - N/A   Mostly Cloudy
9:09 AM 61.0 °F 55.9 °F 83% 30.06 in 10.0 mi North 9.2 mph - N/A   Mostly Cloudy
9:54 AM 64.0 °F 57.0 °F 78% 30.06 in 10.0 mi North 8.1 mph - N/A   Mostly Cloudy
10:54 AM 66.0 °F 55.9 °F 70% 30.06 in 10.0 mi North 8.1 mph - N/A   Scattered Clouds
11:54 AM 68.0 °F 57.0 °F 68% 30.05 in 10.0 mi NE 4.6 mph - N/A   Scattered Clouds
12:54 PM 71.1 °F 57.0 °F 61% 30.03 in 10.0 mi West 3.5 mph - N/A   Scattered Clouds
1:54 PM 73.0 °F 57.0 °F 57% 30.03 in 10.0 mi West 6.9 mph - N/A   Mostly Cloudy
2:54 PM 73.9 °F 57.0 °F 55% 30.01 in 10.0 mi Variable 4.6 mph - N/A   Mostly Cloudy
3:54 PM 75.0 °F 57.0 °F 53% 30.01 in 7.0 mi Variable 4.6 mph - N/A   Mostly Cloudy
4:54 PM 73.9 °F 55.9 °F 53% 30.01 in 10.0 mi Variable 4.6 mph - N/A   Mostly Cloudy
5:54 PM 73.9 °F 57.0 °F 55% 30.01 in 10.0 mi WNW 5.8 mph - N/A   Mostly Cloudy
6:54 PM 73.0 °F 57.0 °F 57% 30.02 in 10.0 mi WNW 5.8 mph - N/A   Mostly Cloudy
7:54 PM 66.9 °F 60.1 °F 79% 30.02 in 10.0 mi WSW 3.5 mph - N/A   Mostly Cloudy
8:54 PM 64.0 °F 57.9 °F 80% 30.02 in 10.0 mi SSW 4.6 mph - N/A   Mostly Cloudy
9:54 PM 62.1 °F 57.9 °F 86% 30.03 in 10.0 mi SSW 3.5 mph - N/A   Mostly Cloudy
10:54 PM 61.0 °F 57.9 °F 90% 30.03 in 10.0 mi Calm Calm - N/A   Mostly Cloudy
11:54 PM 63.0 °F 59.0 °F 87% 30.03 in 10.0 mi Calm Calm - N/A   Mostly Cloudy